This is the latest recevied weather packets stored in our database for station/object K5BOU. If no packets are shown the sender has not sent any weather packets the latest 10 day(s).
| Time | Temp. | Humidity | Pressure | Rain* | Wind** | Luminosity | Snow |
|---|---|---|---|---|---|---|---|
| 1777495074 | 30° C | 78% | 1007.9 hPa | 0 mm | - | 366 W/m² | - |
| 1777494771 | 30° C | 78% | 1007.9 hPa | 0 mm | - | 188 W/m² | - |
| 1777494468 | 30.56° C | 77% | 1007.9 hPa | 0 mm | - | 238 W/m² | - |
| 1777494164 | 30.56° C | 78% | 1008.1 hPa | 0 mm | - | 462 W/m² | - |
| 1777493862 | 30.56° C | 76% | 1008.2 hPa | 0 mm | - | 429 W/m² | - |
| 1777493560 | 31.11° C | 76% | 1008 hPa | 0 mm | - | 696 W/m² | - |
| 1777493257 | 30° C | 77% | 1008.2 hPa | 0 mm | - | 783 W/m² | - |
| 1777492953 | 30.56° C | 77% | 1008.2 hPa | 0 mm | - | 263 W/m² | - |
| 1777492651 | 30° C | 79% | 1008.2 hPa | 0 mm | - | 521 W/m² | - |
| 1777492350 | 30.56° C | 79% | 1008.5 hPa | 0 mm | - | 316 W/m² | - |
| 1777492047 | 30.56° C | 79% | 1008.6 hPa | 0 mm | - | 430 W/m² | - |
| 1777491745 | 30.56° C | 77% | 1008.7 hPa | 0 mm | - | 371 W/m² | - |
| 1777491442 | 30° C | 78% | 1008.5 hPa | 0 mm | - | 363 W/m² | - |
| 1777491139 | 29.44° C | 80% | 1008.5 hPa | 0 mm | - | 283 W/m² | - |
| 1777490835 | 30.56° C | 78% | 1008.5 hPa | 0 mm | - | 284 W/m² | - |
| 1777490531 | 30.56° C | 79% | 1008.9 hPa | 0 mm | - | 441 W/m² | - |
| 1777490227 | 30.56° C | 78% | 1008.7 hPa | 0 mm | - | 343 W/m² | - |
| 1777489925 | 30.56° C | 79% | 1008.8 hPa | 0 mm | - | 814 W/m² | - |
| 1777489623 | 30.56° C | 79% | 1008.4 hPa | 0 mm | - | 396 W/m² | - |
| 1777489319 | 30° C | 79% | 1008.9 hPa | 0 mm | - | 561 W/m² | - |
| 1777489016 | 30° C | 80% | 1008.8 hPa | 0 mm | - | 340 W/m² | - |
| 1777488713 | 29.44° C | 80% | 1009.2 hPa | 0 mm | - | 427 W/m² | - |
| 1777488410 | 30° C | 81% | 1009.1 hPa | 0 mm | - | 509 W/m² | - |
| 1777488109 | 29.44° C | 81% | 1009.3 hPa | 0 mm | - | 416 W/m² | - |
| 1777487806 | 29.44° C | 81% | 1009.5 hPa | 0 mm | - | 248 W/m² | - |
* Rain latest hour (hover to see other rain measurements)
** Current wind speed in m/s (hover to see current wind gust speed)